This is the latest recevied weather packets stored in our database for station/object N2PUI. If no packets are shown the sender has not sent any weather packets the latest 10 day(s).
| Time | Temp. | Humidity | Pressure | Rain* | Wind** | Luminosity | Snow |
|---|---|---|---|---|---|---|---|
| 1777980954 | 16.67° C | 62% | 1007.9 hPa | 0 mm | - | 32 W/m² | - |
| 1777980650 | 16.67° C | 63% | 1007.8 hPa | 0 mm | - | 22 W/m² | - |
| 1777980346 | 16.67° C | 63% | 1007.9 hPa | 0 mm | - | 23 W/m² | - |
| 1777980044 | 16.67° C | 64% | 1008 hPa | 0 mm | - | 32 W/m² | - |
| 1777979739 | 16.11° C | 64% | 1008 hPa | 0 mm | - | 26 W/m² | - |
| 1777979435 | 16.11° C | 65% | 1008 hPa | 0 mm | - | 29 W/m² | - |
| 1777979131 | 16.11° C | 65% | 1008.1 hPa | 0 mm | - | 40 W/m² | - |
| 1777978828 | 16.11° C | 66% | 1008 hPa | 0 mm | - | 44 W/m² | - |
| 1777978525 | 16.11° C | 64% | 1007.9 hPa | 0 mm | - | 27 W/m² | - |
| 1777978221 | 16.67° C | 62% | 1007.6 hPa | 0 mm | - | 12 W/m² | - |
| 1777977918 | 16.67° C | 60% | 1007.9 hPa | 0 mm | - | 11 W/m² | - |
| 1777977615 | 16.67° C | 60% | 1008 hPa | 0 mm | - | 15 W/m² | - |
| 1777977312 | 16.67° C | 60% | 1007.9 hPa | 0 mm | - | 19 W/m² | - |
| 1777977009 | 16.11° C | 60% | 1008 hPa | 0 mm | - | 15 W/m² | - |
| 1777976706 | 16.11° C | 60% | 1008 hPa | 0 mm | - | 13 W/m² | - |
| 1777976404 | 16.11° C | 60% | 1007.6 hPa | 0 mm | - | 14 W/m² | - |
| 1777976102 | 16.11° C | 60% | 1007.6 hPa | 0 mm | - | 12 W/m² | - |
| 1777975798 | 16.11° C | 60% | 1007.5 hPa | 0 mm | - | 9 W/m² | - |
| 1777975495 | 16.11° C | 60% | 1007.6 hPa | 0 mm | - | 5 W/m² | - |
| 1777975192 | 16.11° C | 60% | 1007.5 hPa | 0 mm | - | 3 W/m² | - |
| 1777974888 | 16.67° C | 59% | 1007.3 hPa | 0 mm | - | 2 W/m² | - |
| 1777974584 | 16.11° C | 59% | 1007.2 hPa | 0 mm | - | 0 W/m² | - |
| 1777974281 | 16.11° C | 60% | 1007.1 hPa | 0 mm | - | 0 W/m² | - |
| 1777973977 | 16.11° C | 59% | 1007.1 hPa | 0 mm | - | 0 W/m² | - |
| 1777973674 | 16.11° C | 60% | 1007.1 hPa | 0 mm | - | 0 W/m² | - |
* Rain latest hour (hover to see other rain measurements)
** Current wind speed in m/s (hover to see current wind gust speed)